Tracking 30685 objects as of 18-Jun-2025
HD Live streaming from Space Station
objects crossing your sky now

COSMOS 1867 COOLANT

Track COSMOS 1867 COOLANT now!
10-day predictions


NORAD ID: 39661
Int'l Code: 1987-060Y
Perigee: 774.4 km
Apogee: 795.6 km
Inclination: 65.0 °
Period: 100.4 minutes
Semi major axis: 7155 km
RCS: Unknown
Launch date: July 10, 1987
Source: Commonwealth of Independent States (former USSR) (CIS)
Launch site: TYURATAM MISSILE AND SPACE COMPLEX (TTMTR)

Note: This is SATELLITE DEBRIS
Your satellite tracking list
Your tracking list is empty




NASA's NSSDC Master Catalog

Two Line Element Set (TLE):
1 39661U 87060Y   25167.68353309  .00000421  00000-0  18577-3 0  9992
2 39661  65.0100 314.1831 0014801 261.2521  98.6889 14.34166929584272
Source of the keplerian elements: AFSPC